Location: �clusier
(49.9361°N, 2.7869°E)
Time: 23:35:02
(UTC+00:00)

Cosmos 1331 Rocket - Pass Details

Date: 24 October 2021
Orbit: 749 x 778 km, 74.0° (Epoch: 28 November)

Event Time Altitude Azimuth Distance (km) Brightness Sun altitude
Rises 04:36:48 0° 343° (NNW) 3,229 7.1 -18.1°
Reaches altitude 10° 04:40:35 10° 11° (N) 2,306 6.6 -17.4°
Maximum altitude 04:43:00 13° 39° (NE) 2,096 6.8 -17.1°
Drops below altitude 10° 04:45:26 10° 67° (ENE) 2,311 7.6 -16.7°
Sets 04:49:13 0° 94° (E) 3,240 9.1 -16.1°
